Regional Weather Roundup
Issued by NWS Green Bay, WI

Home | Current Version | Previous Version | Text Only | Print | Product List | Glossary On
Versions: 1 2 3 4 5 6 7 8 9 10 11 12 13 14 15 16 17 18 19 20 21 22 23 24 25 26 27 28 29 30 31 32 33 34 35 36 37 38 39 40 41 42 43 44 45 46 47 48 49 50
000
ASUS43 KGRB 192100
RWRGRB

NORTH-CENTRAL AND NORTHEAST WISCONSIN REGIONAL WEATHER ROUNDUP
NATIONAL WEATHER SERVICE GREEN BAY WI
300 PM CST THU JAN 19 2017

WIZ005-009-010>012-018-019-192200-
NORTH CENTRAL WISCONSIN

CITY           SKY/WX    TMP DP  RH WIND       PRES   REMARKS
IRONWOOD       SUNNY     51  37  58 S7        29.74F
MANITOWISH WTR NOT AVBL
ARBOR VITAE    NOT AVBL
EAGLE RIVER    NOT AVBL
LAND O LAKES   NOT AVBL
RHINELANDER    SUNNY     41  34  76 SW9       29.81R
PHILLIPS       SUNNY     44  34  68 S6        29.77S
ANTIGO         NOT AVBL
TOMAHAWK       NOT AVBL
MERRILL        CLOUDY    34  33  98 CALM        N/A  FOG
$$

WIZ013-073-192200-
NORTHEAST WISCONSIN

CITY           SKY/WX    TMP DP  RH WIND       PRES   REMARKS
IRON MOUNTAIN  SUNNY     39  31  72 SE8       29.81R
MARINETTE      NOT AVBL
$$

WIZ017-030-035>037-045-192200-
CENTRAL WISCONSIN

CITY           SKY/WX    TMP DP  RH WIND       PRES   REMARKS
MEDFORD        NOT AVBL
WAUSAU         MOSUNNY   36  33  89 MISG      29.82F
MOSINEE        PTSUNNY   36  36 100 CALM      29.84F FOG
MARSHFIELD     CLOUDY    33  31  92 SE7       29.81F FOG
WISC RAPIDS    SUNNY     39  33  79 SE6       29.84F
STEVENS POINT  NOT AVBL
WAUPACA        NOT AVBL
SHAWANO        NOT AVBL
CLINTONVILLE   CLOUDY    32  32 100 SE5       29.87F FOG
WAUTOMA        MOSUNNY   35  31  85 S6        29.88R
$$

WIZ038-039-048-051-192200-
FOX VALLEY

CITY           SKY/WX    TMP DP  RH WIND       PRES   REMARKS
NWS GREEN BAY  FOG       34  34 100 S3        29.88F VSB 1
APPLETON       FOG       32  32 100 S6        29.86F VSB 1/4
OSHKOSH        CLOUDY    34  31  88 S7        29.88S FOG
FOND DU LAC    CLOUDY    34  31  88 S8        29.88S FOG
$$

WIZ022-050-052-192200-
EAST CENTRAL WISCONSIN

CITY           SKY/WX    TMP DP  RH WIND       PRES   REMARKS
EPHRAIM        NOT AVBL
WASHINGTON ISL NOT AVBL
STURGEON BAY   CLOUDY    34  32  92 S9        29.89R FOG
MANITOWOC      NOT AVBL
SHEBOYGAN      FOG       32  32 100 S8        29.90S VSB 1/2
$$

LMZ563-521-522-541>543-192200-
LAKESHORE

STATION/POSITION TIME  TEMP    WIND        PRES    VSBY  WAVE
                       AIR SEA DIR/SP/G                  HT/PER
                 (UTC) (F)     (DEG/KT/KT) (MB)    (MI)  (FT/S)
SHEBOYGAN LKSHOR 2000   33     180/ 14/ 16 1013.1R
KEWAUNEE LKSHORE 2030   34     200/  8/ 12 1011.9R
NORTHPORT PIER   2040   34     190/  3/  7 1012.2R
SISTER BAY LKSHO 2050   35     240/  8/  9   N/A
MENOMINEE LKSHOR 2030          210/  8/ 14 1011.2R
$$



USA.gov is the U.S. government's official web portal to all federal, state and local government web resources and services.